GFSWCAN_250_rhum_372.txt.gz
RH
67 71 73 80 76 45 70 74 65 78 100 86 62 60 50 45 34 33 33 34 37 39 46 53 54 56 54 49 42 41 44 48 54 50 54 61 52 58 61 68 84 92 91 81 85 73 85 81 74 76 72 82 86 75
80 81 77 91 76 42 40 92 89 84 100 77 62 75 62 57 47 39 39 41 38 36 36 36 34 38 46 41 39 52 46 47 53 45 50 66 64 68 55 64 88 84 100 90 95 91 94 95 82 81 84 88 88 93
82 93 89 84 73 52 43 62 98 84 98 89 67 80 76 86 72 58 52 64 58 49 46 43 40 39 39 42 41 48 48 58 63 59 79 82 75 78 64 70 90 92 100 93 100 98 96 96 86 88 85 88 91 100
97 86 95 85 97 61 61 49 74 99 98 97 73 72 88 96 100 86 76 80 84 77 72 77 81 79 72 60 51 47 55 64 73 68 73 80 77 84 81 86 100 96 100 90 100 97 100 93 93 90 99 98 96 82
96 94 87 86 100 64 58 48 55 97 100 100 99 79 84 94 99 100 100 100 100 100 100 86 89 99 86 82 76 61 81 76 86 79 76 70 72 95 88 94 98 98 100 98 100 100 97 99 92 94 96 100 100 80
100 99 86 81 100 85 78 67 51 56 100 100 100 100 100 100 96 100 100 100 100 100 100 100 100 100 96 92 100 99 81 77 100 99 89 83 67 100 93 99 99 100 99 90 98 100 95 100 93 98 99 97 91 71
100 100 100 89 100 99 94 79 55 50 53 89 100 100 100 100 100 100 100 100 100 100 100 100 100 100 100 99 100 96 80 76 100 100 100 96 61 97 95 93 98 98 91 92 93 100 88 95 100 100 100 95 90 76
100 100 100 100 100 100 100 93 82 60 50 57 89 100 100 100 100 100 100 100 100 100 100 100 80 84 90 80 89 98 86 96 100 100 100 97 74 100 92 99 78 100 90 100 96 100 96 84 100 94 100 94 85 64
100 100 100 100 100 100 100 95 94 74 74 56 46 62 84 100 100 100 100 100 100 100 100 98 97 66 92 91 95 90 94 100 100 100 100 96 79 100 96 94 81 75 96 97 100 95 77 89 100 94 99 89 93 60
100 94 98 100 100 100 100 100 99 80 89 87 65 48 56 62 98 100 100 100 100 100 100 100 100 100 80 95 94 87 84 100 100 100 100 76 100 100 100 98 87 78 93 83 100 89 88 94 100 98 98 88 73 71
83 98 100 100 100 100 100 100 100 94 83 86 95 80 65 54 99 100 100 100 100 100 100 100 100 99 98 98 89 91 97 100 95 100 98 87 100 100 100 98 92 80 89 88 100 92 87 100 100 100 98 93 67 70
95 100 100 100 100 100 100 100 100 100 94 96 96 88 90 97 74 98 100 100 100 100 100 100 100 100 99 94 96 94 100 100 100 100 98 100 100 100 100 97 83 88 92 100 92 93 88 100 100 100 96 93 70 57
100 100 100 100 100 100 100 100 100 100 100 100 100 96 99 100 100 100 100 100 100 100 100 100 100 84 92 95 93 97 96 92 100 100 98 100 100 100 100 80 76 92 100 100 76 92 99 97 100 94 96 83 59 41
99 100 100 100 100 100 100 100 100 100 100 100 100 100 100 94 100 100 100 100 100 100 100 100 100 91 100 99 100 100 94 97 92 88 100 100 100 100 89 66 100 96 100 98 92 97 100 100 100 94 93 65 49 30
100 100 100 100 100 100 100 100 100 100 100 100 100 86 97 100 100 99 91 98 100 100 100 100 94 100 100 100 100 100 88 100 88 97 100 100 100 99 67 99 99 100 100 100 100 100 100 100 100 96 66 51 34 25
100 100 100 100 100 100 100 100 100 100 100 100 100 100 100 100 100 100 100 100 100 97 100 100 100 100 100 100 100 100 100 89 100 100 100 100 100 76 97 95 100 98 94 100 92 100 100 100 99 82 52 32 24 24
100 100 100 100 100 100 100 100 100 100 100 100 100 100 100 100 100 100 100 100 100 100 100 100 100 100 100 92 98 100 100 100 100 100 100 94 91 97 95 100 95 99 98 90 100 100 99 97 76 59 34 24 22 24
100 100 100 100 100 100 100 100 100 100 100 100 100 100 100 100 100 100 100 100 100 100 100 100 100 100 100 100 100 100 100 100 100 100 99 100 100 100 95 96 100 100 87 99 100 99 96 72 51 30 22 21 23 22
100 100 100 100 100 100 100 100 100 100 100 100 100 100 100 100 100 100 100 100 100 100 100 100 100 100 100 100 100 100 100 99 96 100 99 100 100 90 99 100 97 90 100 99 98 89 70 46 24 19 20 21 23 20
100 100 100 100 100 100 100 100 100 100 100 100 100 100 100 100 100 100 100 100 100 100 100 100 100 100 100 100 100 100 100 100 100 100 100 99 90 91 100 95 90 99 97 98 92 65 48 22 17 17 18 18 16 12
69 100 100 100 100 100 100 100 100 100 100 100 100 100 100 100 100 100 100 100 100 100 100 100 100 100 100 99 99 100 98 97 100 100 90 89 98 100 100 98 98 91 97 97 62 34 17 15 16 17 17 14 10 7
71 75 98 100 100 100 100 100 100 100 100 100 100 100 100 100 100 100 100 100 100 100 100 100 100 89 90 100 100 94 91 99 99 90 90 100 100 100 98 92 88 88 83 45 21 15 16 15 13 12 10 8 6 6
43 67 95 96 100 100 100 100 100 100 100 100 100 100 100 100 100 100 100 100 100 100 100 98 92 100 99 87 84 90 100 99 90 94 100 100 98 97 94 88 73 58 28 15 13 11 11 10 8 7 6 5 5 5
62 62 63 68 72 73 88 100 100 100 100 100 100 100 100 100 100 100 100 100 100 93 93 98 89 86 83 91 96 99 97 91 98 91 87 97 98 93 84 64 42 16 12 11 10 9 8 7 5 5 4 5 4 4
61 75 68 62 60 75 93 100 100 100 100 100 100 100 100 100 100 100 100 100 100 100 100 91 93 97 100 99 98 92 92 99 92 94 89 88 82 71 58 32 13 10 10 9 8 6 5 4 4 4 4 4 3 3
55 55 63 76 85 96 100 100 100 100 100 100 100 100 100 100 100 100 100 100 100 97 82 78 95 100 99 99 96 89 90 88 74 68 72 70 57 44 21 14 14 11 9 7 6 5 5 4 4 3 3 3 2 2
70 84 97 100 100 100 100 100 100 100 100 100 100 100 100 100 100 100 99 98 92 92 96 100 100 93 87 87 86 84 77 69 68 67 59 50 32 14 11 10 10 9 8 6 5 5 5 4 3 3 2 2 2 2
82 95 100 100 100 100 100 100 100 100 100 100 100 100 97 94 96 96 95 93 93 95 94 86 80 83 83 77 70 64 65 70 63 45 25 12 10 9 8 7 6 5 5 5 5 5 4 4 3 2 2 2 2 2
96 100 100 99 94 100 100 96 96 98 99 100 100 100 100 100 97 94 97 86 72 69 76 73 64 61 55 58 65 72 67 53 37 14 10 9 7 6 6 5 4 4 4 4 3 4 3 2 2 2 2 2 2 2
85 89 98 100 100 100 98 96 100 100 100 99 98 95 94 100 92 81 78 73 60 58 62 57 54 58 59 55 50 39 27 16 11 11 10 8 7 6 5 4 4 4 4 4 3 2 2 2 2 2 2 2 2 2
90 100 100 100 100 100 100 100 100 100 100 100 96 89 82 77 68 60 56 58 61 58 56 57 57 59 53 38 20 10 8 8 8 7 7 6 5 4 4 4 4 4 4 3 2 2 2 2 2 2 2 2 2 2
100 100 100 100 100 100 100 100 90 80 76 75 70 63 58 57 58 56 56 58 58 58 56 55 44 30 17 10 9 9 9 8 8 7 5 5 4 4 4 3 3 3 3 2 2 2 2 2 2 2 2 2 2 2
62 66 72 73 70 67 65 61 59 58 55 54 57 60 59 61 62 57 56 53 52 47 30 20 14 11 10 9 8 8 7 6 6 5 5 5 4 4 4 4 3 3 3 2 2 2 2 2 2 2 2 2 2 2

GFSWCAN_250_rhum_375.txt.gz
RH
100 100 100 99 80 78 74 83 71 59 47 59 68 65 67 78 84 94 89 95 99 100 100 94 75 84 100 100 97 90 82 77 79 81 96 96 64 58 70 67 62 69 83 84 83 88 86 77 91 94 89 79 92 78
100 100 100 100 91 89 79 93 98 82 77 52 62 72 77 89 96 100 100 100 100 100 100 100 100 100 100 100 100 100 100 91 83 89 83 86 88 71 66 84 66 65 87 93 96 93 94 78 97 86 87 79 93 84
100 100 100 100 99 92 90 94 100 100 81 78 92 89 89 100 100 100 100 100 100 100 100 100 100 100 100 100 100 100 100 100 94 87 80 81 92 91 80 78 76 64 84 100 97 98 97 79 85 86 93 79 85 83
90 100 100 100 100 100 100 88 100 91 100 89 75 70 63 57 88 100 100 100 100 100 100 100 100 71 100 100 100 99 96 86 67 93 83 78 64 100 100 79 85 74 78 100 100 100 98 88 87 95 95 79 88 86
80 91 100 100 100 100 100 99 94 99 100 100 99 69 64 76 72 72 96 87 100 100 100 100 100 100 100 100 100 100 100 89 99 97 86 80 72 99 99 96 87 73 76 99 96 100 100 96 86 100 95 92 83 97
96 76 100 100 100 100 100 100 100 99 100 100 100 94 77 54 54 52 49 68 81 97 100 100 100 100 82 100 97 100 98 93 64 96 72 79 73 74 81 80 93 77 88 100 100 97 100 91 83 100 91 95 84 100
95 88 90 100 100 100 100 100 100 100 100 100 100 100 97 88 75 65 50 47 54 80 98 90 83 99 100 99 72 75 95 77 87 99 93 100 96 100 77 76 100 77 97 100 100 97 100 90 86 100 88 95 86 100
87 90 100 100 100 100 100 100 100 91 90 100 100 100 98 97 100 85 79 77 84 75 69 73 75 79 84 100 87 84 98 72 100 100 91 100 100 100 75 94 97 77 100 100 100 95 100 92 95 98 91 95 86 100
79 87 100 100 100 100 100 100 100 99 89 92 100 100 100 100 99 100 100 100 100 99 100 87 93 75 83 91 78 69 73 56 100 84 100 100 100 100 73 94 100 86 100 100 100 96 100 88 97 84 100 84 94 100
88 96 100 100 100 100 100 100 100 100 96 97 100 100 100 100 100 100 98 100 100 100 100 100 100 100 98 88 79 77 71 54 76 97 100 100 100 97 84 100 100 100 94 100 100 96 95 96 84 89 98 82 100 99
94 92 94 98 97 100 100 100 100 100 100 100 100 100 100 100 100 100 100 100 100 100 100 100 100 100 100 80 69 69 77 75 92 96 100 100 100 83 100 100 94 100 100 100 100 94 95 99 89 100 96 99 100 100
90 94 100 100 100 100 100 100 100 100 100 100 100 100 100 87 99 96 100 100 100 100 100 100 100 98 93 79 87 89 95 72 94 100 100 100 100 92 100 100 92 100 100 98 100 90 99 96 90 97 90 100 100 99
95 84 87 97 100 100 100 100 100 100 100 100 100 100 100 92 91 97 100 100 100 100 100 100 100 100 100 91 96 100 86 92 89 100 100 100 79 100 96 96 98 97 100 97 88 96 99 96 97 90 100 100 100 100
51 67 88 100 100 100 100 100 100 100 100 100 100 100 100 96 96 100 100 100 100 100 100 100 100 100 100 100 100 100 100 100 100 100 100 100 100 100 93 100 100 92 95 95 100 99 100 99 100 100 100 100 100 100
26 40 74 100 100 100 100 100 100 100 100 100 100 100 100 100 100 100 100 100 100 100 100 100 100 100 100 100 100 100 100 100 100 100 100 100 100 99 100 89 87 87 94 92 100 100 100 100 100 100 100 100 99 90
20 26 52 81 100 100 100 100 100 100 100 100 100 100 100 100 100 100 100 100 100 100 100 100 100 100 100 100 100 100 100 100 100 100 100 100 100 100 100 78 90 100 100 100 100 100 100 100 100 100 100 100 89 68
17 20 26 34 47 84 100 100 100 100 100 100 100 100 100 100 100 100 100 100 100 100 100 100 100 100 100 100 100 100 100 100 100 100 100 100 99 97 88 89 95 88 88 100 100 100 96 100 99 98 99 93 65 59
16 18 20 27 34 52 100 100 100 100 100 100 100 100 100 100 100 100 100 100 100 100 100 100 100 100 100 100 100 100 100 100 100 100 99 100 99 94 85 96 89 89 91 98 100 94 100 92 93 87 83 53 43 21
15 17 19 22 28 42 99 100 100 100 100 100 100 100 100 100 100 100 100 100 100 100 100 100 100 100 100 100 100 100 100 100 100 100 96 100 94 80 98 100 93 88 98 100 94 97 89 86 75 71 45 30 16 14
17 18 20 22 24 28 70 100 100 100 100 100 100 100 100 100 100 100 100 100 100 100 100 100 100 100 100 100 100 100 100 100 100 99 100 85 96 100 98 100 89 94 100 94 97 91 80 67 54 32 21 12 11 10
19 20 21 22 24 26 29 50 95 100 100 100 100 100 100 100 100 100 100 100 100 100 100 100 100 100 100 100 100 100 100 100 95 96 100 100 100 93 99 91 89 96 90 92 92 67 54 43 27 14 11 10 9 7
20 20 20 21 24 25 30 34 43 76 100 100 100 100 100 100 100 100 100 100 100 100 100 100 100 100 100 100 100 100 95 84 100 100 100 98 87 99 88 82 88 80 84 79 57 45 28 15 10 9 9 8 6 5
22 23 23 23 23 26 27 32 38 51 84 100 100 100 100 100 100 100 100 100 100 100 99 100 100 100 100 100 97 90 99 99 90 89 97 90 96 84 88 78 73 79 69 49 29 14 10 8 8 7 6 5 4 4
24 23 23 25 28 28 32 44 62 94 100 100 100 100 100 100 100 100 92 90 99 100 100 100 100 100 96 92 100 98 95 97 91 93 95 92 84 88 79 65 68 54 36 20 10 8 8 7 6 4 4 4 4 4
28 26 25 27 31 33 36 43 62 72 70 74 85 94 93 82 87 93 88 81 84 94 97 94 94 99 100 94 96 100 100 98 90 91 81 77 87 65 65 60 40 26 14 9 8 8 7 5 4 4 4 4 3 3
30 28 27 31 37 38 46 56 73 78 76 83 89 89 90 87 83 77 78 84 93 92 96 99 99 97 97 92 91 97 88 92 88 73 78 75 62 65 60 41 26 14 10 8 8 7 5 4 4 4 3 3 3 2
28 28 31 31 36 47 62 74 79 76 66 68 73 72 72 75 80 92 92 97 100 100 99 97 93 97 88 90 88 92 89 71 68 68 63 59 57 49 30 16 12 11 10 9 7 5 5 4 4 4 3 3 2 2
27 28 28 34 36 33 30 29 31 39 48 60 68 76 76 81 85 96 100 100 100 95 94 93 90 91 93 91 80 69 70 67 63 57 53 49 32 21 13 10 10 8 7 6 5 5 4 4 4 3 3 2 2 2
29 30 29 28 28 27 26 26 29 36 48 61 69 78 91 100 100 100 99 94 95 95 91 89 83 80 81 77 76 71 63 56 56 59 33 17 10 8 8 8 7 6 5 5 4 4 4 4 3 3 2 2 2 2
24 24 26 26 28 30 32 34 40 46 57 66 74 80 89 96 92 90 93 93 90 86 80 73 68 66 68 58 54 57 54 52 36 24 15 11 11 10 9 7 6 5 5 4 4 3 3 2 2 2 2 2 2 2
28 31 33 33 34 36 37 42 47 52 57 63 69 76 83 92 92 86 83 84 80 71 71 75 70 57 52 51 48 40 26 18 13 11 10 10 8 7 6 6 5 5 4 4 3 3 2 2 2 2 2 2 2 2
35 36 37 38 38 38 41 44 47 51 57 64 70 74 80 78 70 61 59 62 65 61 55 54 55 51 40 30 24 18 14 11 10 9 8 7 6 5 5 4 4 4 4 3 3 2 2 2 2 2 2 2 2 2
31 33 35 36 37 38 40 43 44 47 52 54 57 56 54 47 47 47 52 50 50 51 49 43 34 25 18 13 12 11 10 10 9 7 6 5 5 5 5 5 5 4 3 3 3 2 2 2 2 3 3 3 3 3

GFSWCAN_250_rhum_378.txt.gz
RH
100 100 100 100 100 100 100 100 97 100 99 93 94 90 85 99 82 68 52 65 92 100 100 100 91 100 99 100 100 88 93 91 79 76 71 93 100 90 81 67 61 79 77 87 66 72 74 73 79 89 87 89 86 72
100 100 100 100 100 100 100 100 100 100 100 100 98 100 100 100 98 87 66 59 55 64 50 47 91 79 78 96 81 79 58 57 77 56 61 54 62 77 93 66 73 69 82 95 70 85 75 77 85 82 93 83 97 82
100 100 100 100 100 100 100 100 100 100 100 100 100 100 100 100 100 100 86 76 62 55 59 59 52 50 52 60 64 66 70 56 62 76 76 73 62 75 88 84 72 67 90 99 74 86 81 73 81 88 97 90 95 81
100 100 100 99 100 100 100 100 100 100 100 100 100 100 100 100 100 98 93 87 89 81 72 72 76 92 75 87 94 89 80 67 83 80 79 76 79 69 87 81 69 90 100 78 92 92 89 84 90 97 98 90 91 85
100 100 100 90 90 100 100 100 100 100 100 100 100 100 100 100 100 100 100 99 92 99 99 99 100 100 100 93 92 87 80 86 100 75 73 87 62 64 76 88 86 100 99 78 79 96 95 94 97 100 100 95 95 84
100 100 98 92 84 100 100 100 100 100 100 100 100 100 100 100 100 100 100 100 100 100 100 100 100 100 100 100 100 96 95 100 97 77 69 100 67 75 70 70 100 100 95 100 95 100 89 88 80 100 92 100 96 84
100 100 100 100 98 99 100 100 100 100 100 100 100 100 100 100 100 100 100 100 100 100 100 100 100 100 100 100 100 100 100 100 85 91 100 95 100 81 75 78 100 86 94 100 100 99 95 95 88 88 86 93 93 88
100 100 100 100 100 99 100 100 100 100 100 100 100 100 86 97 100 100 100 100 93 100 100 100 100 100 100 100 99 100 98 99 92 80 100 100 100 100 77 84 100 95 100 85 100 91 98 100 94 99 92 92 98 90
91 100 100 100 100 100 100 100 100 100 100 100 100 100 98 88 100 100 100 100 100 100 100 100 100 100 100 100 100 100 100 100 100 99 98 100 100 100 99 100 100 98 100 93 98 98 100 100 99 81 92 92 91 99
46 75 99 100 100 100 100 100 100 100 100 100 100 100 100 81 100 100 100 88 97 100 100 100 100 100 100 100 100 100 100 100 94 100 99 99 100 100 100 100 92 100 100 100 100 100 100 100 88 81 91 96 94 96
47 52 58 87 95 91 100 100 100 100 100 100 100 100 100 100 100 100 95 75 70 93 100 100 100 100 100 100 100 100 100 95 89 78 100 100 100 100 100 100 97 100 100 100 100 100 100 99 79 87 95 100 98 99
32 52 58 55 72 91 100 100 100 100 100 100 100 100 100 100 100 93 70 73 93 100 100 100 100 100 100 100 100 100 100 100 100 94 100 100 97 97 100 100 100 100 98 100 100 100 94 81 86 88 100 100 100 99
23 36 46 50 57 66 79 84 86 99 100 97 99 100 100 100 100 80 89 100 100 100 100 100 100 100 100 100 100 100 100 100 90 100 100 100 100 100 100 100 100 100 100 100 98 100 81 87 96 94 100 99 100 98
22 22 37 45 52 51 81 92 87 91 100 93 93 100 100 92 96 100 100 100 100 100 100 100 100 100 100 100 100 100 100 100 98 100 100 100 100 100 100 100 100 100 100 100 96 90 91 83 90 97 96 100 95 99
23 22 25 37 42 38 41 63 86 86 98 92 99 100 100 100 100 100 100 100 100 100 100 100 100 100 100 100 100 100 100 100 100 100 100 100 100 100 100 100 100 100 100 100 99 99 81 81 87 99 100 95 96 87
21 20 22 23 27 34 37 32 37 70 84 77 85 100 100 100 100 100 100 100 100 100 100 100 100 100 100 100 100 100 100 100 100 100 100 100 100 100 100 100 100 100 100 100 100 78 84 84 91 100 98 97 95 76
20 22 19 19 20 24 27 29 27 29 27 36 56 99 100 100 100 100 100 100 100 100 100 100 100 100 100 100 100 100 100 100 100 100 100 100 100 100 100 100 100 100 99 97 90 86 79 85 94 95 95 91 78 63
22 20 19 20 21 21 22 19 20 21 23 30 48 86 100 100 100 100 100 100 100 100 100 100 100 100 100 100 100 100 100 100 100 100 100 100 100 100 100 100 100 97 96 98 87 82 87 92 96 84 78 68 62 58
21 21 19 21 19 17 18 16 19 18 21 22 29 39 69 86 90 100 100 100 100 100 100 100 100 100 100 100 100 100 100 100 100 100 100 100 100 100 100 100 96 95 93 88 85 88 94 88 80 71 58 53 47 24
18 20 21 22 19 20 18 16 17 19 20 21 23 30 38 44 45 58 100 100 100 100 100 100 100 100 100 100 100 100 100 100 100 100 100 100 100 100 100 95 96 83 84 85 93 93 79 77 65 56 49 36 18 11
12 17 20 22 21 19 19 18 17 17 19 20 22 26 30 35 39 45 94 100 100 100 100 100 100 100 100 100 100 100 100 100 100 100 100 100 98 96 96 92 83 88 90 92 93 72 73 63 53 38 31 16 12 8
10 14 14 18 22 19 17 18 19 20 21 22 24 26 29 31 34 39 58 100 100 100 100 100 100 100 100 100 100 100 100 100 100 99 100 97 94 90 92 83 92 93 94 86 73 73 55 45 32 22 11 10 8 6
10 12 11 16 24 20 17 22 23 22 22 23 25 26 28 32 36 38 58 73 81 90 94 95 99 100 100 100 100 100 98 91 97 97 92 92 94 91 85 96 97 91 87 66 61 45 36 24 14 10 9 6 5 5
9 10 11 16 26 25 20 23 28 28 26 27 26 26 34 39 37 42 42 45 50 59 68 77 81 78 79 87 92 92 96 96 96 92 95 96 90 89 92 92 85 79 63 53 41 29 18 10 9 8 6 5 4 4
8 9 11 19 26 26 23 26 32 31 32 34 32 31 31 29 27 30 40 51 51 57 66 72 80 84 87 80 80 90 95 94 96 96 86 86 93 93 84 74 66 57 51 38 24 13 9 8 7 5 5 4 4 4
8 10 15 24 28 28 26 29 36 37 35 34 34 35 33 31 31 33 41 48 58 65 68 64 62 66 75 84 93 93 89 87 89 90 94 93 90 81 78 58 50 40 27 18 12 10 9 7 5 5 4 4 3 3
9 12 17 22 28 29 28 27 26 28 30 31 31 30 29 29 30 34 36 43 46 52 63 75 75 77 82 83 90 88 90 89 88 85 77 74 68 59 49 46 40 28 18 12 10 9 6 5 4 4 4 4 3 2
12 14 16 23 29 30 27 24 24 25 26 28 30 32 30 32 33 35 39 47 55 62 64 68 71 73 79 80 78 79 80 71 65 57 52 49 44 45 40 29 18 12 10 10 8 6 5 5 5 4 4 3 2 2
16 18 21 25 28 27 26 24 23 24 26 30 33 36 38 38 41 46 53 56 54 56 59 63 64 65 65 60 55 53 50 47 43 38 40 39 29 18 12 9 9 9 7 6 5 5 5 5 5 4 3 2 2 2
22 22 25 30 32 32 31 30 29 30 30 32 34 37 43 48 52 53 53 52 50 50 52 52 50 49 52 55 50 42 43 48 46 43 36 22 15 11 10 10 8 6 5 5 5 5 4 4 3 3 2 2 2 3
22 25 27 31 34 36 38 38 38 39 41 43 44 46 48 49 48 48 48 47 45 45 44 41 41 37 34 37 44 46 46 42 30 20 15 12 10 10 8 6 6 5 5 5 4 4 3 3 2 2 2 2 2 2
25 26 28 30 31 31 35 38 40 42 44 44 44 44 45 45 46 46 46 43 37 33 34 35 38 43 44 41 36 27 17 13 11 10 10 10 9 7 6 6 5 5 4 4 4 3 3 3 2 2 3 3 2 2
30 31 32 34 35 37 38 41 42 43 43 41 40 38 36 34 34 35 37 39 42 44 46 44 38 34 30 20 15 13 11 10 10 9 8 6 6 6 5 4 4 4 4 4 3 3 3 2 2 3 3 2 2 2

GFSWCAN_250_rhum_381.txt.gz
RH
84 86 99 96 100 100 100 100 100 100 100 100 100 100 100 100 100 100 100 100 100 100 100 100 99 88 83 92 84 71 83 73 70 80 79 75 68 65 81 87 71 70 79 73 84 97 65 96 88 88 88 79 73 80
84 96 99 97 100 100 100 100 100 100 100 100 100 100 100 100 100 100 100 90 99 100 100 100 100 100 100 96 97 100 96 92 68 61 77 81 71 68 65 78 82 78 78 83 65 84 97 95 98 97 82 90 86 83
91 98 100 100 100 100 100 100 100 100 100 100 100 100 100 100 100 100 100 100 96 100 100 100 100 100 100 100 100 100 100 98 100 100 94 78 86 68 89 96 90 73 91 100 79 78 100 86 100 100 82 100 91 96
100 100 99 91 96 98 100 100 100 100 100 100 92 97 100 100 100 100 100 100 100 92 100 100 100 100 100 100 100 100 100 100 100 100 98 87 88 71 97 100 100 100 100 100 93 86 100 86 100 100 84 100 95 100
99 100 100 100 100 100 100 100 100 100 100 100 100 98 100 100 100 100 100 100 100 100 92 100 100 100 100 100 100 100 100 100 100 100 100 100 93 77 76 94 100 100 100 100 75 94 100 87 100 100 89 100 100 90
73 97 100 100 100 100 100 89 94 100 100 100 100 100 100 100 100 75 80 100 100 100 100 94 100 100 100 100 100 100 100 100 100 100 100 100 100 100 100 100 96 96 100 100 100 100 97 100 94 100 94 100 100 98
58 63 73 100 99 100 100 100 95 84 99 100 100 100 100 100 100 86 78 100 100 100 100 97 90 100 100 100 100 100 100 100 100 100 100 100 100 100 100 100 89 98 97 100 100 100 100 93 100 94 96 100 100 97
44 48 52 58 85 94 99 100 100 100 94 100 100 100 100 100 100 100 98 92 98 100 86 79 89 100 100 100 100 100 100 100 100 100 100 100 100 100 100 100 100 98 97 100 100 100 100 100 100 99 100 100 100 100
39 41 38 49 49 56 91 97 100 95 96 100 100 100 100 100 100 100 100 98 61 49 48 69 95 100 100 100 100 100 100 100 100 100 100 100 100 100 100 100 100 100 100 100 100 99 100 100 100 100 100 100 100 98
32 37 36 36 42 49 48 81 94 96 90 87 91 98 100 100 100 100 100 90 71 54 50 67 100 100 100 100 100 100 100 100 100 100 98 76 100 100 100 100 100 96 100 100 100 96 100 100 100 100 100 100 100 98
30 34 37 33 36 45 46 41 63 98 99 98 92 90 89 98 100 100 90 100 96 85 71 92 100 100 100 100 100 100 100 100 100 100 99 88 100 100 100 100 100 100 100 100 100 100 100 100 100 100 100 98 99 98
37 33 32 38 43 38 44 43 40 57 83 89 98 87 87 92 85 95 92 100 100 87 82 87 85 100 100 100 100 100 100 100 100 100 100 100 100 100 100 100 100 100 100 100 100 100 100 100 100 100 100 100 100 100
36 37 36 36 28 29 36 34 40 47 50 64 84 89 93 95 92 91 100 98 89 86 90 96 100 100 100 100 100 100 100 100 100 100 100 100 100 100 100 100 100 100 100 100 100 100 100 100 100 100 98 98 100 100
40 38 37 38 35 34 31 27 31 27 29 24 31 43 59 88 97 100 100 100 100 100 100 100 100 100 100 100 100 100 100 100 100 100 100 100 100 100 100 100 100 100 100 100 100 100 100 100 100 99 99 98 100 100
48 43 43 40 35 32 31 29 28 25 21 18 18 22 38 57 56 54 87 100 100 100 100 100 100 100 100 100 100 100 100 100 100 100 100 100 100 100 100 100 100 100 100 100 100 100 100 100 100 100 99 100 99 88
42 43 47 41 40 36 31 28 29 25 17 14 16 19 25 28 41 46 60 91 100 100 100 100 100 100 100 100 100 100 100 100 100 100 100 100 100 100 100 100 100 100 100 100 100 100 100 100 100 100 100 99 92 79
41 44 40 36 37 34 30 29 27 25 22 19 17 16 15 15 18 31 47 53 64 90 100 100 100 100 100 100 100 100 100 100 100 100 100 100 100 100 100 100 100 100 100 100 100 100 100 100 100 100 100 95 80 67
36 36 33 29 26 25 25 23 22 20 18 23 22 19 15 18 19 22 31 48 52 50 54 61 67 79 100 100 100 100 100 100 100 100 100 100 100 100 100 100 100 100 100 100 100 100 98 100 98 91 90 76 76 73
33 29 26 22 20 18 13 13 14 16 18 19 22 22 20 19 19 21 28 41 54 49 45 46 48 53 73 91 100 100 100 100 100 100 100 100 100 100 100 100 100 100 100 100 98 96 94 89 89 88 74 68 62 46
24 22 17 14 12 10 10 9 9 10 13 17 22 22 21 18 17 21 26 34 36 35 34 35 40 44 47 48 50 54 60 62 81 100 100 100 100 100 100 100 100 100 98 86 87 87 89 84 85 73 66 49 34 33
19 17 12 10 10 9 7 7 8 8 10 14 18 22 21 19 17 18 24 28 29 29 28 29 33 35 36 39 44 51 57 65 70 91 100 100 100 100 100 100 89 79 80 82 82 82 82 74 65 62 47 31 24 15
12 10 9 10 9 8 7 8 8 8 9 12 16 21 22 22 20 21 24 25 25 27 28 29 30 32 33 36 44 56 66 69 76 87 98 100 98 91 89 86 73 66 74 75 77 76 65 62 48 39 29 22 12 9
8 8 8 9 7 7 8 9 8 9 10 13 16 18 22 25 24 23 23 26 28 32 32 32 32 34 38 44 52 58 60 63 74 84 87 90 83 71 61 64 69 71 69 72 65 52 48 35 32 24 16 9 8 7
8 7 7 7 8 9 10 10 10 10 12 15 16 18 22 26 27 24 22 24 26 31 34 34 35 36 37 41 45 49 52 53 56 62 58 52 53 56 60 67 66 69 64 53 50 38 34 24 18 10 8 7 6 5
7 7 6 8 10 10 10 10 10 12 13 14 15 18 23 27 28 26 24 25 28 29 31 34 36 36 35 36 40 42 46 45 43 45 50 57 63 67 59 56 50 52 50 35 34 26 17 11 8 8 7 6 5 4
7 8 8 9 10 11 11 11 11 13 14 15 16 17 19 22 25 27 28 26 25 25 27 29 31 32 34 38 40 42 44 50 53 56 58 60 57 50 43 43 38 31 32 28 21 15 11 9 8 6 5 5 4 4
8 9 10 10 10 10 10 10 11 12 12 13 15 18 21 24 27 29 28 28 28 29 31 35 38 39 42 45 47 51 54 56 57 54 51 49 50 52 45 36 34 31 25 18 14 11 10 8 6 5 4 4 4 4
8 9 9 10 11 11 11 11 11 12 13 15 16 18 20 24 28 31 33 34 36 37 37 37 39 41 44 46 46 48 48 46 45 46 47 44 36 36 36 33 26 18 14 12 10 8 7 6 5 5 4 4 4 3
9 11 11 11 11 11 12 12 14 18 22 24 25 26 28 32 35 38 40 42 41 42 42 43 43 43 43 43 42 42 45 45 40 34 32 31 30 26 19 15 12 10 9 8 7 7 6 5 5 5 4 3 3 2
10 10 11 11 12 14 16 19 22 24 26 26 28 32 35 37 38 39 41 43 46 47 46 44 44 43 42 40 39 38 36 34 34 35 30 21 15 12 10 9 9 8 7 6 5 5 5 5 5 4 3 3 3 3
11 12 12 14 14 15 16 18 20 24 28 33 36 38 39 38 38 39 41 42 43 44 46 48 48 47 47 45 43 41 38 33 26 21 17 14 12 10 9 8 7 6 5 4 4 4 4 4 3 3 3 2 3 3
13 15 17 21 25 28 32 34 35 35 35 36 38 39 39 38 38 36 40 42 43 43 43 42 42 41 39 36 34 29 23 20 17 14 12 11 10 9 7 6 6 5 4 4 4 5 4 3 3 3 2 3 3 2
26 27 29 31 32 33 34 35 37 37 37 37 36 35 35 37 39 40 40 40 40 38 38 36 34 32 27 22 19 17 14 12 10 10 9 8 7 6 6 5 4 4 4 4 4 4 3 3 3 3 3 3 3 2

GFSWCAN_250_rhum_384.txt.gz
RH
91 91 93 98 91 91 92 94 100 100 100 100 100 100 100 100 100 100 100 100 100 100 100 93 100 100 100 100 100 100 100 100 96 77 84 94 100 100 72 100 81 82 65 86 68 68 82 97 81 97 100 78 99 87
93 90 92 97 98 94 100 100 100 100 100 100 100 100 100 100 97 89 100 100 100 100 100 100 97 100 100 100 100 100 100 96 92 98 93 81 97 100 94 99 100 100 79 100 93 64 95 88 94 91 100 99 87 87
96 84 82 94 100 93 100 99 96 100 100 100 100 100 100 100 100 89 76 99 100 100 100 100 100 100 100 100 100 100 100 100 100 100 100 99 100 100 100 100 100 100 100 97 100 92 88 91 83 73 100 100 100 100
74 71 69 78 96 98 90 100 98 94 100 100 100 100 100 100 100 96 83 89 100 99 94 100 100 98 98 100 100 100 100 100 100 100 100 100 100 100 100 100 100 100 100 100 100 100 100 100 96 100 100 100 100 98
80 86 78 67 79 100 99 100 100 98 99 100 100 100 100 100 100 100 100 100 100 100 78 83 100 100 96 99 100 100 100 100 100 100 100 100 100 100 100 100 100 100 100 80 72 100 99 100 100 100 100 100 100 98
92 86 77 61 63 78 100 97 100 100 100 92 100 100 100 100 100 100 100 100 95 90 96 77 73 78 82 100 100 100 100 100 100 100 100 100 100 100 100 100 100 100 100 94 82 74 100 100 93 100 100 100 100 100
72 61 59 60 54 64 72 93 91 97 99 99 87 100 99 100 100 100 95 95 100 93 84 80 90 100 96 99 100 100 100 100 100 100 100 100 100 100 100 100 100 100 100 100 90 76 100 97 96 100 100 100 100 100
44 38 38 44 50 54 54 60 79 85 91 100 100 98 100 100 100 98 94 97 100 100 87 74 87 87 76 72 83 100 100 100 100 100 100 100 100 100 100 100 100 100 100 100 100 90 100 100 99 100 100 100 100 100
37 36 36 38 37 40 46 43 55 70 84 83 98 100 100 100 100 100 99 100 100 100 100 100 100 77 74 70 72 83 100 100 99 100 100 100 100 100 100 100 100 100 100 100 90 92 100 100 100 100 100 100 100 100
42 40 38 37 39 40 39 38 42 51 59 82 89 79 100 100 100 100 100 100 100 98 91 100 100 96 86 80 76 71 74 82 76 84 100 100 100 100 100 100 100 100 100 90 95 100 100 100 100 100 100 100 100 100
44 44 46 46 45 45 45 42 42 42 49 50 56 67 78 85 96 100 96 100 95 98 98 100 100 100 98 92 81 78 72 72 66 73 84 92 100 100 100 100 100 100 92 96 100 100 100 100 100 100 100 100 100 100
58 59 56 51 44 42 41 42 46 48 43 42 52 60 59 64 72 88 94 98 97 98 100 100 100 100 100 100 100 98 94 90 92 93 92 99 100 100 100 100 100 96 93 100 100 100 100 100 100 100 100 100 100 100
60 58 56 52 48 49 47 44 41 39 40 41 43 38 36 43 61 83 91 95 91 87 90 91 98 100 100 100 100 100 92 89 89 96 100 100 100 100 100 100 100 100 100 100 100 100 100 100 100 100 100 100 100 100
61 61 64 62 53 50 46 43 43 42 38 32 32 33 36 41 41 44 49 53 59 64 68 74 79 85 96 100 100 100 100 100 97 100 100 100 100 100 100 100 100 100 100 100 100 100 100 100 100 100 100 100 95 98
53 51 65 62 56 52 49 47 44 42 38 33 27 26 31 32 34 37 38 38 36 30 29 26 31 38 57 80 98 100 98 95 100 100 100 100 100 100 100 100 100 100 100 100 100 100 100 100 100 97 94 86 85 80
60 71 79 65 65 59 55 51 46 44 38 29 28 26 26 24 24 26 29 31 31 26 22 22 21 21 26 40 68 92 92 86 84 82 83 87 92 96 100 100 100 100 100 100 100 100 100 98 91 91 88 83 78 78
74 84 67 72 65 57 57 53 44 34 30 26 24 20 20 18 20 19 18 21 23 24 24 22 17 15 18 22 34 52 68 81 82 82 74 64 58 56 58 59 62 66 66 70 89 92 84 78 79 81 78 77 76 71
78 73 68 68 70 59 57 47 35 28 36 36 22 17 14 12 11 12 12 13 15 18 21 24 23 19 18 19 25 34 42 47 56 62 66 62 54 50 49 50 51 51 54 64 71 75 73 73 74 68 68 67 66 71
72 79 75 68 62 47 38 30 37 31 30 32 18 12 11 10 10 10 10 11 11 14 19 22 22 23 21 20 23 26 29 32 39 45 50 49 45 42 41 41 41 43 50 55 55 60 61 58 56 63 63 64 59 57
70 70 74 64 54 42 25 21 22 18 19 16 10 11 10 10 9 9 10 10 10 12 16 20 23 25 26 25 23 24 27 30 34 38 38 38 38 38 38 37 39 43 46 50 51 49 49 53 56 53 53 52 41 30
51 54 46 37 33 25 14 13 16 12 11 9 10 10 9 9 9 9 9 9 10 13 17 20 22 26 29 28 28 30 32 36 38 38 38 37 37 39 39 43 45 44 43 42 46 49 52 52 55 52 45 30 22 20
35 37 33 25 14 11 10 11 12 10 9 9 9 9 9 9 10 9 9 9 10 13 18 22 25 29 31 32 32 33 35 36 37 37 38 42 44 43 41 43 44 43 46 51 52 49 50 50 47 33 26 21 18 14
17 14 11 10 9 8 8 10 10 9 9 8 8 9 9 10 10 10 9 10 12 15 18 21 24 28 32 35 37 37 34 32 32 34 37 39 41 43 44 45 45 47 46 45 47 47 42 34 30 24 20 16 11 9
8 7 7 7 8 8 9 9 9 8 9 8 8 8 9 10 10 10 10 12 14 17 20 22 24 25 29 34 36 37 38 37 36 36 38 41 44 46 46 46 45 44 46 47 41 36 33 27 22 19 13 9 8 6
6 6 7 8 9 9 10 10 9 9 9 8 8 10 11 11 10 10 12 14 15 16 17 19 21 23 28 34 40 43 44 44 42 41 43 45 44 45 45 46 46 46 44 38 37 30 23 21 14 9 8 7 6 5
9 9 10 11 11 11 11 9 8 8 8 9 10 11 11 11 11 12 14 15 16 17 18 21 25 29 33 36 41 45 48 51 52 52 50 46 43 41 42 43 43 41 35 29 24 20 14 9 8 7 6 5 5 4
9 10 10 10 9 9 8 8 8 8 9 10 11 12 12 13 14 14 16 20 25 26 25 25 26 27 29 32 36 39 42 43 44 44 44 45 46 46 45 40 32 28 26 21 14 10 9 8 7 6 5 4 4 4
9 8 8 8 7 7 8 8 8 9 10 12 14 14 14 15 15 16 18 20 21 24 26 28 29 31 34 39 43 46 48 49 50 50 50 48 41 35 32 31 28 20 13 10 9 9 8 6 6 5 4 4 4 4
8 8 7 8 8 8 8 9 10 12 13 14 14 15 15 15 16 20 23 26 28 29 30 32 37 40 42 43 45 46 47 46 40 33 31 35 37 32 24 15 11 10 10 10 9 8 7 6 5 5 5 5 4 3
8 8 8 9 10 10 11 12 12 13 14 14 16 17 19 21 24 28 30 31 34 38 40 42 44 45 44 44 43 42 41 40 38 33 24 16 12 11 10 10 9 9 8 7 6 6 5 5 5 5 5 4 3 3
11 11 11 12 12 13 14 14 14 16 18 20 22 25 28 30 33 37 41 44 46 47 48 47 48 47 44 41 36 30 23 19 15 13 12 11 10 10 9 9 8 6 6 6 5 5 4 4 4 4 3 3 3 3
14 15 16 17 18 19 20 22 25 28 31 34 36 37 40 42 43 44 48 49 51 52 49 45 39 32 28 24 21 18 15 14 14 13 12 11 10 9 8 6 6 6 5 5 4 4 5 4 3 3 3 3 3 3
24 25 26 27 28 29 30 31 34 35 38 39 40 42 43 44 44 44 41 40 38 34 30 25 22 19 17 16 16 15 14 13 13 12 11 9 8 7 6 6 6 5 5 5 5 5 4 3 3 3 3 3 3 3